Weather History for Livingston, MT

Change the Weather History Date:

Thursday, December 27, 2012

  Actual Average Record
Temperature  
Mean Temperature 22 °F 26 °F  
Max Temperature 27 °F 36 °F 61 °F (1980)
Min Temperature 16 °F 16 °F -4 °F (1988)
Degree Days  
Heating Degree Days 44 39  
Month to date heating degree days 1049  
Since 1 July heating degree days 3008  
Moisture  
Dew Point 15 °F    
Average Humidity 75    
Maximum Humidity 86    
Minimum Humidity 63    
Precipitation  
Precipitation 0.00 in 0.01 in 0.13 in (1964)
Month to date precipitation 0.46  
Year to date precipitation 14.75  
Sea Level Pressure  
Sea Level Pressure 29.97 in    
Wind  
Wind Speed 6 mph (West)    
Max Wind Speed 15 mph    
Max Gust Speed 18 mph    
Visibility 10 miles    
Events Snow    
T = Trace of Precipitation, MM = Missing Value Source: NWS Daily Summary

Daily Weather History Graph

Daily Weather History Graph

Search for Another Location

Airport:

Trip Planner

Search our weather history database for the weather conditions in past years. The results will help you decide how hot, cold, wet, or windy it might be!

Date:

Astronomy

Dec. 27, 2012 Rise Set
Actual Time 8:02 AM MST 4:44 PM MST
Civil Twilight 7:27 AM MST 5:18 PM MST
Nautical Twilight 6:49 AM MST 5:56 PM MST
Astronomical Twilight 6:13 AM MST 6:32 PM MST
Moon 4:32 PM MST 7:13 AM MST
Length of Visible Light 9h 51m
Length of Day
8h 42m
Full, 100% of the Moon is Illuminated
Dec 27
Full
Dec 28
Full
Jan 4
Last Quarter
Jan 11
New
Jan 18
First Quarter

Hourly Weather History & Observations

Time (MST) Temp. Windchill Dew Point Humidity Pressure Visibility Wind Dir Wind Speed Gust Speed Precip Events Conditions
12:53 AM 16.0 °F 10.4 °F 10.0 °F 77% 29.91 in 7.0 mi West 3.5 mph - 0.00 in Snow Light Snow
1:53 AM 17.1 °F 8.7 °F 10.9 °F 77% 29.92 in 9.0 mi NW 5.8 mph - 0.00 in Snow Light Snow
2:53 AM 17.1 °F - 12.0 °F 81% 29.93 in 10.0 mi Calm Calm - 0.00 in   Overcast
3:53 AM 17.1 °F 11.7 °F 12.0 °F 81% 29.94 in 10.0 mi SW 3.5 mph - N/A   Overcast
4:53 AM 19.0 °F 13.9 °F 14.0 °F 81% 29.94 in 10.0 mi West 3.5 mph - 0.00 in   Overcast
5:53 AM 19.0 °F 10.0 °F 14.0 °F 81% 29.94 in 10.0 mi NW 6.9 mph - N/A   Overcast
6:53 AM 21.0 °F 13.4 °F 16.0 °F 81% 29.96 in 10.0 mi West 5.8 mph - 0.00 in   Overcast
7:53 AM 19.9 °F 12.1 °F 15.1 °F 81% 29.99 in 10.0 mi WNW 5.8 mph - 0.00 in   Overcast
8:53 AM 21.0 °F 13.4 °F 17.1 °F 85% 29.99 in 8.0 mi West 5.8 mph - 0.00 in Snow Light Snow
9:51 AM 21.2 °F 13.6 °F 17.6 °F 86% 29.82 in 8.0 mi West 5.8 mph - 0.00 in   Overcast
9:53 AM 21.9 °F 14.5 °F 18.0 °F 85% 30.00 in 9.0 mi West 5.8 mph - 0.00 in   Overcast
10:34 AM 23.0 °F 13.1 °F 17.6 °F 80% 29.83 in 10.0 mi West 9.2 mph - N/A   Scattered Clouds
10:53 AM 23.0 °F 13.9 °F 16.0 °F 74% 30.00 in 10.0 mi WNW 8.1 mph - N/A   Clear
11:53 AM 26.1 °F 16.2 °F 18.0 °F 71% 29.98 in 10.0 mi West 10.4 mph - N/A   Partly Cloudy
12:53 PM 27.0 °F - 16.0 °F 63% 29.96 in 10.0 mi North - - N/A   Partly Cloudy
2:53 PM 26.1 °F 16.2 °F 16.0 °F 66% 29.97 in 10.0 mi WNW 10.4 mph - N/A   Clear
3:53 PM 27.0 °F 17.3 °F 18.0 °F 69% 29.99 in 10.0 mi WNW 10.4 mph - N/A   Overcast
4:53 PM 25.0 °F 14.2 °F 15.1 °F 66% 30.00 in 10.0 mi WNW 11.5 mph - N/A   Overcast
5:53 PM 24.1 °F 16.0 °F 16.0 °F 71% 30.01 in 10.0 mi West 6.9 mph - N/A   Overcast
6:53 PM 27.0 °F 16.1 °F 17.1 °F 66% 30.00 in 10.0 mi WSW 12.7 mph - N/A   Overcast
7:53 PM 25.0 °F 18.1 °F 16.0 °F 69% 30.02 in 10.0 mi NW 5.8 mph - N/A   Overcast
8:53 PM 24.1 °F 11.5 °F 15.1 °F 69% 30.01 in 10.0 mi WSW 15.0 mph - N/A   Scattered Clouds
9:53 PM 21.9 °F 13.4 °F 12.9 °F 68% 30.02 in 10.0 mi West 6.9 mph - N/A   Overcast
10:53 PM 21.9 °F 14.5 °F 14.0 °F 72% 30.01 in 10.0 mi WNW 5.8 mph 18.4 mph N/A   Overcast
11:53 PM 21.9 °F 11.0 °F 14.0 °F 72% 30.02 in 10.0 mi West 10.4 mph - N/A   Overcast